Time,TemperatureF,DewpointF,PressureIn,WindDirection,WindDirectionDegrees,WindSpeedMPH,WindSpeedGustMPH,Humidity,HourlyPrecipIn,Conditions,Clouds,dailyrainin,SoftwareType,DateUTC
2013-09-28 00:01:00,59.6,13.4,29.29,ESE,108,3.1,4.9,16,0.00,,---,0.00,VWS V14.01,2013-09-28 05:01:00,
2013-09-28 00:06:00,59.2,13.1,29.29,ESE,106,3.6,4.0,16,0.00,,---,0.00,VWS V14.01,2013-09-28 05:06:00,
2013-09-28 00:11:00,58.9,12.8,29.29,ESE,104,6.7,6.7,16,0.00,,---,0.00,VWS V14.01,2013-09-28 05:11:00,
2013-09-28 00:16:00,59.1,12.9,29.29,SE,128,3.6,4.9,16,0.00,,---,0.00,VWS V14.01,2013-09-28 05:16:00,
2013-09-28 00:21:00,58.5,12.5,29.29,East,92,5.4,5.4,16,0.00,,---,0.00,VWS V14.01,2013-09-28 05:21:00,
2013-09-28 00:26:00,58.5,12.5,29.29,ESE,107,3.1,5.4,16,0.00,,---,0.00,VWS V14.01,2013-09-28 05:26:00,
2013-09-28 00:31:00,58.7,12.6,29.29,East,100,4.0,5.4,16,0.00,,---,0.00,VWS V14.01,2013-09-28 05:31:00,
2013-09-28 00:36:00,58.9,12.8,29.29,SE,145,2.7,3.6,16,0.00,,---,0.00,VWS V14.01,2013-09-28 05:36:00,
2013-09-28 00:41:00,58.5,12.5,29.29,ESE,113,0.0,0.0,16,0.00,,---,0.00,VWS V14.01,2013-09-28 05:41:00,
2013-09-28 00:46:00,57.8,11.9,29.29,East,83,2.2,4.0,16,0.00,,---,0.00,VWS V14.01,2013-09-28 05:46:00,
2013-09-28 00:51:00,57.8,11.9,29.29,SSE,152,0.0,0.0,16,0.00,,---,0.00,VWS V14.01,2013-09-28 05:51:00,
2013-09-28 00:56:00,57.4,13.0,29.29,East,101,0.0,0.0,17,0.00,,---,0.00,VWS V14.01,2013-09-28 05:56:00,
2013-09-28 01:01:00,57.1,12.7,29.29,SE,131,2.7,2.7,17,0.00,,---,0.00,VWS V14.01,2013-09-28 06:01:00,
2013-09-28 01:06:00,57.4,13.0,29.29,East,94,0.0,2.2,17,0.00,,---,0.00,VWS V14.01,2013-09-28 06:06:00,
2013-09-28 01:11:00,57.6,13.1,29.29,SE,141,0.0,5.4,17,0.00,,---,0.00,VWS V14.01,2013-09-28 06:11:00,
2013-09-28 01:16:00,57.4,13.0,29.29,East,101,0.0,2.2,17,0.00,,---,0.00,VWS V14.01,2013-09-28 06:16:00,
2013-09-28 01:21:00,56.7,12.4,29.29,ESE,109,0.0,0.0,17,0.00,,---,0.00,VWS V14.01,2013-09-28 06:21:00,
2013-09-28 01:26:00,56.7,12.4,29.29,East,91,2.7,2.7,17,0.00,,---,0.00,VWS V14.01,2013-09-28 06:26:00,
2013-09-28 01:31:00,56.7,12.4,29.29,ENE,76,0.0,0.0,17,0.00,,---,0.00,VWS V14.01,2013-09-28 06:31:00,
2013-09-28 01:36:00,56.7,12.4,29.29,SE,125,2.7,4.9,17,0.00,,---,0.00,VWS V14.01,2013-09-28 06:36:00,
2013-09-28 01:41:00,56.7,12.4,29.29,ESE,118,4.0,5.8,17,0.00,,---,0.00,VWS V14.01,2013-09-28 06:41:00,
2013-09-28 01:46:00,56.5,12.3,29.29,ESE,103,0.0,0.0,17,0.00,,---,0.00,VWS V14.01,2013-09-28 06:46:00,
2013-09-28 01:51:00,57.1,12.7,29.29,ESE,122,2.2,2.7,17,0.00,,---,0.00,VWS V14.01,2013-09-28 06:51:00,
2013-09-28 01:56:00,57.1,12.7,29.29,SE,136,0.0,0.0,17,0.00,,---,0.00,VWS V14.01,2013-09-28 06:56:00,
2013-09-28 02:01:00,57.1,12.7,29.29,ESE,104,2.7,4.0,17,0.00,,---,0.00,VWS V14.01,2013-09-28 07:01:00,
2013-09-28 02:06:00,57.1,12.7,29.29,ESE,118,4.5,4.5,17,0.00,,---,0.00,VWS V14.01,2013-09-28 07:06:00,
2013-09-28 02:11:00,57.3,12.9,29.29,ESE,118,2.7,2.7,17,0.00,,---,0.00,VWS V14.01,2013-09-28 07:11:00,
2013-09-28 02:16:00,57.1,12.7,29.29,SSE,165,2.7,4.9,17,0.00,,---,0.00,VWS V14.01,2013-09-28 07:16:00,
2013-09-28 02:21:00,56.7,12.4,29.29,ESE,115,4.0,5.4,17,0.00,,---,0.00,VWS V14.01,2013-09-28 07:21:00,
2013-09-28 02:26:00,56.7,12.4,29.29,SE,138,6.3,6.3,17,0.00,,---,0.00,VWS V14.01,2013-09-28 07:26:00,
2013-09-28 02:31:00,56.5,12.3,29.29,ESE,122,2.2,3.1,17,0.00,,---,0.00,VWS V14.01,2013-09-28 07:31:00,
2013-09-28 02:36:00,56.5,12.3,29.29,SE,141,0.0,0.0,17,0.00,,---,0.00,VWS V14.01,2013-09-28 07:36:00,
2013-09-28 02:41:00,56.4,12.1,29.26,East,96,0.0,0.0,17,0.00,,---,0.00,VWS V14.01,2013-09-28 07:41:00,
2013-09-28 02:46:00,55.8,11.7,29.26,SSE,150,2.2,4.0,17,0.00,,---,0.00,VWS V14.01,2013-09-28 07:46:00,
2013-09-28 02:51:00,56.2,12.0,29.26,East,97,0.0,3.1,17,0.00,,---,0.00,VWS V14.01,2013-09-28 07:51:00,
2013-09-28 02:56:00,56.2,12.0,29.26,East,92,3.1,3.1,17,0.00,,---,0.00,VWS V14.01,2013-09-28 07:56:00,
2013-09-28 03:01:00,56.2,12.0,29.26,ESE,105,0.0,0.0,17,0.00,,---,0.00,VWS V14.01,2013-09-28 08:01:00,
2013-09-28 03:06:00,56.2,12.0,29.26,ESE,116,3.6,5.8,17,0.00,,---,0.00,VWS V14.01,2013-09-28 08:06:00,
2013-09-28 03:11:00,56.0,11.8,29.26,SE,126,4.0,4.0,17,0.00,,---,0.00,VWS V14.01,2013-09-28 08:11:00,
2013-09-28 03:16:00,56.0,11.8,29.26,SSE,156,5.8,5.8,17,0.00,,---,0.00,VWS V14.01,2013-09-28 08:16:00,
2013-09-28 03:21:00,55.8,11.7,29.26,East,95,7.6,7.6,17,0.00,,---,0.00,VWS V14.01,2013-09-28 08:21:00,
2013-09-28 03:26:00,55.8,11.7,29.26,SSE,167,4.9,5.8,17,0.00,,---,0.00,VWS V14.01,2013-09-28 08:26:00,
2013-09-28 03:31:00,55.8,11.7,29.26,SE,142,5.4,5.4,17,0.00,,---,0.00,VWS V14.01,2013-09-28 08:31:00,
2013-09-28 03:36:00,55.8,11.7,29.26,ESE,116,3.1,4.0,17,0.00,,---,0.00,VWS V14.01,2013-09-28 08:36:00,
2013-09-28 03:41:00,55.6,11.5,29.26,SE,130,4.0,6.3,17,0.00,,---,0.00,VWS V14.01,2013-09-28 08:41:00,
2013-09-28 03:46:00,55.6,11.5,29.26,ESE,109,0.0,4.0,17,0.00,,---,0.00,VWS V14.01,2013-09-28 08:46:00,
2013-09-28 03:51:00,55.5,13.9,29.26,SE,131,3.1,4.9,19,0.00,,---,0.00,VWS V14.01,2013-09-28 08:51:00,
2013-09-28 03:56:00,56.0,11.8,29.26,SE,130,0.0,2.2,17,0.00,,---,0.00,VWS V14.01,2013-09-28 08:56:00,
2013-09-28 04:01:00,55.8,14.2,29.26,East,96,2.7,4.9,19,0.00,,---,0.00,VWS V14.01,2013-09-28 09:01:00,
2013-09-28 04:06:00,55.6,14.1,29.26,SSE,150,4.0,4.0,19,0.00,,---,0.00,VWS V14.01,2013-09-28 09:06:00,
2013-09-28 04:11:00,55.5,13.9,29.26,ESE,112,5.8,5.8,19,0.00,,---,0.00,VWS V14.01,2013-09-28 09:11:00,
2013-09-28 04:16:00,55.1,13.6,29.26,ESE,110,2.7,3.1,19,0.00,,---,0.00,VWS V14.01,2013-09-28 09:16:00,
2013-09-28 04:21:00,55.6,14.1,29.26,SE,142,2.2,2.7,19,0.00,,---,0.00,VWS V14.01,2013-09-28 09:21:00,
2013-09-28 04:26:00,54.9,13.4,29.26,SE,125,3.6,3.6,19,0.00,,---,0.00,VWS V14.01,2013-09-28 09:26:00,
2013-09-28 04:31:00,55.3,13.8,29.26,ESE,114,0.0,3.6,19,0.00,,---,0.00,VWS V14.01,2013-09-28 09:31:00,
2013-09-28 04:36:00,54.9,13.4,29.26,ESE,115,3.1,3.1,19,0.00,,---,0.00,VWS V14.01,2013-09-28 09:36:00,
2013-09-28 04:41:00,54.9,13.4,29.26,ESE,106,0.0,0.0,19,0.00,,---,0.00,VWS V14.01,2013-09-28 09:41:00,
2013-09-28 04:46:00,54.6,13.1,29.26,South,179,2.7,2.7,19,0.00,,---,0.00,VWS V14.01,2013-09-28 09:46:00,
2013-09-28 04:51:00,54.6,13.1,29.26,ESE,117,2.7,4.0,19,0.00,,---,0.00,VWS V14.01,2013-09-28 09:51:00,
2013-09-28 04:56:00,54.6,13.1,29.26,East,90,0.0,0.0,19,0.00,,---,0.00,VWS V14.01,2013-09-28 09:56:00,
2013-09-28 05:01:00,54.6,13.1,29.26,ESE,111,4.9,4.9,19,0.00,,---,0.00,VWS V14.01,2013-09-28 10:01:00,
2013-09-28 05:06:00,54.4,13.0,29.26,East,98,2.7,3.6,19,0.00,,---,0.00,VWS V14.01,2013-09-28 10:06:00,
2013-09-28 05:11:00,54.0,13.9,29.26,SE,136,2.7,6.3,20,0.00,,---,0.00,VWS V14.01,2013-09-28 10:11:00,
2013-09-28 05:16:00,53.8,13.7,29.26,SE,125,0.0,0.0,20,0.00,,---,0.00,VWS V14.01,2013-09-28 10:16:00,
2013-09-28 05:21:00,53.7,15.8,29.26,SSW,208,3.1,5.4,22,0.00,,---,0.00,VWS V14.01,2013-09-28 10:21:00,
2013-09-28 05:26:00,53.5,15.6,29.26,East,93,3.1,3.6,22,0.00,,---,0.00,VWS V14.01,2013-09-28 10:26:00,
2013-09-28 05:31:00,53.5,15.6,29.26,ESE,111,0.0,0.0,22,0.00,,---,0.00,VWS V14.01,2013-09-28 10:31:00,
2013-09-28 05:36:00,53.3,15.4,29.26,ESE,118,0.0,2.7,22,0.00,,---,0.00,VWS V14.01,2013-09-28 10:36:00,
2013-09-28 05:41:00,53.1,15.3,29.26,SSE,167,0.0,2.7,22,0.00,,---,0.00,VWS V14.01,2013-09-28 10:41:00,
2013-09-28 05:46:00,53.1,15.3,29.26,SE,126,4.9,5.4,22,0.00,,---,0.00,VWS V14.01,2013-09-28 10:46:00,
2013-09-28 05:51:00,53.5,15.6,29.26,SE,131,0.0,0.0,22,0.00,,---,0.00,VWS V14.01,2013-09-28 10:51:00,
2013-09-28 05:56:00,53.3,15.4,29.26,SE,132,3.1,4.9,22,0.00,,---,0.00,VWS V14.01,2013-09-28 10:56:00,
2013-09-28 06:01:00,53.3,15.4,29.26,East,87,0.0,4.0,22,0.00,,---,0.00,VWS V14.01,2013-09-28 11:01:00,
2013-09-28 06:06:00,52.8,17.9,29.26,ESE,119,0.0,0.0,25,0.00,,---,0.00,VWS V14.01,2013-09-28 11:06:00,
2013-09-28 06:11:00,52.6,17.8,29.26,South,173,4.9,4.9,25,0.00,,---,0.00,VWS V14.01,2013-09-28 11:11:00,
2013-09-28 06:16:00,52.6,17.8,29.26,SE,137,0.0,0.0,25,0.00,,---,0.00,VWS V14.01,2013-09-28 11:16:00,
2013-09-28 06:21:00,52.4,17.6,29.26,SSE,157,3.1,4.0,25,0.00,,---,0.00,VWS V14.01,2013-09-28 11:21:00,
2013-09-28 06:26:00,52.2,18.4,29.29,SE,133,3.1,4.0,26,0.00,,---,0.00,VWS V14.01,2013-09-28 11:26:00,
2013-09-28 06:31:00,52.4,17.6,29.29,SE,126,0.0,0.0,25,0.00,,---,0.00,VWS V14.01,2013-09-28 11:31:00,
2013-09-28 06:36:00,52.2,18.4,29.29,SE,126,0.0,0.0,26,0.00,,---,0.00,VWS V14.01,2013-09-28 11:36:00,
2013-09-28 06:41:00,52.0,18.2,29.29,ESE,113,4.5,4.5,26,0.00,,---,0.00,VWS V14.01,2013-09-28 11:41:00,
2013-09-28 06:46:00,52.0,18.2,29.29,ENE,75,4.0,4.0,26,0.00,,---,0.00,VWS V14.01,2013-09-28 11:46:00,
2013-09-28 06:51:00,51.9,18.1,29.29,ESE,120,0.0,0.0,26,0.00,,---,0.00,VWS V14.01,2013-09-28 11:51:00,
2013-09-28 06:56:00,52.0,18.2,29.29,SSE,161,2.7,2.7,26,0.00,,---,0.00,VWS V14.01,2013-09-28 11:56:00,
2013-09-28 07:01:00,52.2,18.4,29.29,East,93,3.6,7.2,26,0.00,,---,0.00,VWS V14.01,2013-09-28 12:01:00,
2013-09-28 07:06:00,52.0,18.2,29.29,ESE,117,3.6,4.0,26,0.00,,---,0.00,VWS V14.01,2013-09-28 12:06:00,
2013-09-28 07:11:00,52.6,17.8,29.29,ESE,117,2.7,6.3,25,0.00,,---,0.00,VWS V14.01,2013-09-28 12:11:00,
2013-09-28 07:16:00,52.9,18.1,29.29,SE,136,4.0,4.0,25,0.00,,---,0.00,VWS V14.01,2013-09-28 12:16:00,
2013-09-28 07:21:00,52.9,19.0,29.29,East,88,6.3,6.3,26,0.00,,---,0.00,VWS V14.01,2013-09-28 12:21:00,
2013-09-28 07:26:00,53.7,18.7,29.29,SE,136,2.7,4.0,25,0.00,,---,0.00,VWS V14.01,2013-09-28 12:26:00,
2013-09-28 07:31:00,53.7,18.7,29.29,ESE,105,2.7,2.7,25,0.00,,---,0.00,VWS V14.01,2013-09-28 12:31:00,
2013-09-28 07:36:00,54.4,19.3,29.29,SSW,213,3.1,6.3,25,0.00,,---,0.00,VWS V14.01,2013-09-28 12:36:00,
2013-09-28 07:41:00,54.6,18.5,29.26,East,86,3.1,6.7,24,0.00,,---,0.00,VWS V14.01,2013-09-28 12:41:00,
2013-09-28 07:46:00,54.7,18.7,29.26,SE,124,3.6,3.6,24,0.00,,---,0.00,VWS V14.01,2013-09-28 12:46:00,
2013-09-28 07:51:00,55.1,19.0,29.26,SSW,202,4.0,4.0,24,0.00,,---,0.00,VWS V14.01,2013-09-28 12:51:00,
2013-09-28 07:56:00,57.3,15.4,29.29,SSE,147,2.2,5.8,19,0.00,,---,0.00,VWS V14.01,2013-09-28 12:56:00,
2013-09-28 08:01:00,59.8,13.5,29.29,SSE,149,0.0,0.0,16,0.00,,---,0.00,VWS V14.01,2013-09-28 13:01:00,
2013-09-28 08:06:00,61.2,14.7,29.29,SE,145,0.0,0.0,16,0.00,,---,0.00,VWS V14.01,2013-09-28 13:06:00,
2013-09-28 08:11:00,61.9,13.8,29.26,ESE,119,5.4,5.4,15,0.00,,---,0.00,VWS V14.01,2013-09-28 13:11:00,
2013-09-28 08:16:00,62.1,13.9,29.26,SSW,192,3.6,5.8,15,0.00,,---,0.00,VWS V14.01,2013-09-28 13:16:00,
2013-09-28 08:21:00,62.8,14.5,29.26,South,190,0.0,4.9,15,0.00,,---,0.00,VWS V14.01,2013-09-28 13:21:00,
2013-09-28 08:26:00,63.9,15.4,29.26,SE,139,2.2,6.3,15,0.00,,---,0.00,VWS V14.01,2013-09-28 13:26:00,
2013-09-28 08:31:00,65.4,16.5,29.26,SE,126,3.1,6.3,15,0.00,,---,0.00,VWS V14.01,2013-09-28 13:31:00,
2013-09-28 08:36:00,65.2,16.4,29.26,ESE,114,3.1,5.4,15,0.00,,---,0.00,VWS V14.01,2013-09-28 13:36:00,
2013-09-28 08:41:00,64.5,15.8,29.26,South,172,5.4,5.4,15,0.00,,---,0.00,VWS V14.01,2013-09-28 13:41:00,
2013-09-28 08:46:00,64.8,16.1,29.26,SE,128,0.0,2.7,15,0.00,,---,0.00,VWS V14.01,2013-09-28 13:46:00,
2013-09-28 08:51:00,65.5,16.7,29.26,South,189,0.0,0.0,15,0.00,,---,0.00,VWS V14.01,2013-09-28 13:51:00,
2013-09-28 08:56:00,65.2,16.4,29.26,SSW,203,5.4,5.8,15,0.00,,---,0.00,VWS V14.01,2013-09-28 13:56:00,
2013-09-28 09:01:00,66.4,17.4,29.26,SSE,156,0.0,0.0,15,0.00,,---,0.00,VWS V14.01,2013-09-28 14:01:00,
2013-09-28 09:06:00,65.4,16.5,29.26,SE,126,3.1,6.3,15,0.00,,---,0.00,VWS V14.01,2013-09-28 14:06:00,
2013-09-28 09:11:00,65.5,16.7,29.26,South,179,4.9,4.9,15,0.00,,---,0.00,VWS V14.01,2013-09-28 14:11:00,
2013-09-28 09:16:00,67.5,16.7,29.26,SSE,164,8.1,8.1,14,0.00,,---,0.00,VWS V14.01,2013-09-28 14:16:00,
2013-09-28 09:21:00,67.7,16.8,29.26,SSW,207,6.7,6.7,14,0.00,,---,0.00,VWS V14.01,2013-09-28 14:21:00,
2013-09-28 09:26:00,67.2,16.4,29.26,SSE,163,3.1,3.1,14,0.00,,---,0.00,VWS V14.01,2013-09-28 14:26:00,
2013-09-28 09:31:00,67.7,16.8,29.26,South,186,3.1,3.1,14,0.00,,---,0.00,VWS V14.01,2013-09-28 14:31:00,
2013-09-28 09:36:00,68.4,17.4,29.26,SSE,157,5.8,5.8,14,0.00,,---,0.00,VWS V14.01,2013-09-28 14:36:00,
2013-09-28 09:41:00,68.8,17.7,29.26,SSW,192,3.1,3.1,14,0.00,,---,0.00,VWS V14.01,2013-09-28 14:41:00,
2013-09-28 09:46:00,69.0,17.8,29.26,SSW,194,2.2,3.6,14,0.00,,---,0.00,VWS V14.01,2013-09-28 14:46:00,
2013-09-28 09:51:00,70.2,22.0,29.26,SE,145,5.4,5.4,16,0.00,,---,0.00,VWS V14.01,2013-09-28 14:51:00,
2013-09-28 09:56:00,71.1,22.7,29.26,SSE,160,7.6,7.6,16,0.00,,---,0.00,VWS V14.01,2013-09-28 14:56:00,
2013-09-28 10:01:00,69.5,21.4,29.26,South,174,7.6,7.6,16,0.00,,---,0.00,VWS V14.01,2013-09-28 15:01:00,
2013-09-28 10:06:00,68.4,17.4,29.26,ESE,114,4.0,6.3,14,0.00,,---,0.00,VWS V14.01,2013-09-28 15:06:00,
2013-09-28 10:11:00,68.1,17.1,29.26,SSE,148,11.0,11.0,14,0.00,,---,0.00,VWS V14.01,2013-09-28 15:11:00,
2013-09-28 10:16:00,68.6,17.5,29.26,SE,146,5.8,8.3,14,0.00,,---,0.00,VWS V14.01,2013-09-28 15:16:00,
2013-09-28 10:21:00,70.2,22.0,29.26,SSW,194,3.6,3.6,16,0.00,,---,0.00,VWS V14.01,2013-09-28 15:21:00,
2013-09-28 10:26:00,72.4,22.2,29.26,South,188,0.0,2.7,15,0.00,,---,0.00,VWS V14.01,2013-09-28 15:26:00,
2013-09-28 10:31:00,72.6,22.3,29.26,SE,141,4.0,8.3,15,0.00,,---,0.00,VWS V14.01,2013-09-28 15:31:00,
2013-09-28 10:36:00,72.4,22.2,29.26,SE,126,7.6,8.1,15,0.00,,---,0.00,VWS V14.01,2013-09-28 15:36:00,
2013-09-28 10:41:00,72.7,22.5,29.23,South,187,3.1,5.8,15,0.00,,---,0.00,VWS V14.01,2013-09-28 15:41:00,
2013-09-28 10:46:00,74.0,23.5,29.23,SSW,198,6.3,6.3,15,0.00,,---,0.00,VWS V14.01,2013-09-28 15:46:00,
2013-09-28 10:51:00,74.2,23.6,29.23,ESE,104,8.7,10.1,15,0.00,,---,0.00,VWS V14.01,2013-09-28 15:51:00,
2013-09-28 10:56:00,74.5,23.9,29.23,SSE,149,4.0,7.6,15,0.00,,---,0.00,VWS V14.01,2013-09-28 15:56:00,
2013-09-28 11:01:00,74.9,24.2,29.23,SSE,163,8.3,8.3,15,0.00,,---,0.00,VWS V14.01,2013-09-28 16:01:00,
2013-09-28 11:06:00,74.5,23.9,29.23,SSW,210,4.0,5.4,15,0.00,,---,0.00,VWS V14.01,2013-09-28 16:06:00,
2013-09-28 11:11:00,74.9,24.2,29.23,SSW,208,5.8,7.6,15,0.00,,---,0.00,VWS V14.01,2013-09-28 16:11:00,
2013-09-28 11:16:00,75.8,24.9,29.23,SSE,168,13.2,13.2,15,0.00,,---,0.00,VWS V14.01,2013-09-28 16:16:00,
2013-09-28 11:21:00,75.6,24.8,29.23,SE,126,5.4,10.1,15,0.00,,---,0.00,VWS V14.01,2013-09-28 16:21:00,
2013-09-28 11:26:00,75.8,24.9,29.23,SW,216,6.7,6.7,15,0.00,,---,0.00,VWS V14.01,2013-09-28 16:26:00,
2013-09-28 11:31:00,77.1,25.9,29.23,South,180,3.6,3.6,15,0.00,,---,0.00,VWS V14.01,2013-09-28 16:31:00,
2013-09-28 11:36:00,78.1,25.1,29.23,SE,145,2.7,6.3,14,0.00,,---,0.00,VWS V14.01,2013-09-28 16:36:00,
2013-09-28 11:41:00,78.3,25.2,29.21,South,188,8.3,8.3,14,0.00,,---,0.00,VWS V14.01,2013-09-28 16:41:00,
2013-09-28 11:46:00,78.0,25.0,29.21,SSW,195,5.8,5.8,14,0.00,,---,0.00,VWS V14.01,2013-09-28 16:46:00,
2013-09-28 11:51:00,78.0,25.0,29.21,SSE,162,6.3,8.3,14,0.00,,---,0.00,VWS V14.01,2013-09-28 16:51:00,
2013-09-28 11:56:00,78.0,25.0,29.21,ESE,122,0.0,2.7,14,0.00,,---,0.00,VWS V14.01,2013-09-28 16:56:00,
2013-09-28 12:01:00,77.6,24.7,29.21,East,100,9.6,9.6,14,0.00,,---,0.00,VWS V14.01,2013-09-28 17:01:00,
2013-09-28 12:06:00,77.2,26.0,29.21,South,189,4.9,12.8,15,0.00,,---,0.00,VWS V14.01,2013-09-28 17:06:00,
2013-09-28 12:11:00,77.8,24.8,29.21,SSE,168,5.8,6.3,14,0.00,,---,0.00,VWS V14.01,2013-09-28 17:11:00,
2013-09-28 12:16:00,77.6,24.7,29.21,South,176,11.0,11.4,14,0.00,,---,0.00,VWS V14.01,2013-09-28 17:16:00,
2013-09-28 12:21:00,77.4,26.2,29.21,SW,226,8.3,8.3,15,0.00,,---,0.00,VWS V14.01,2013-09-28 17:21:00,
2013-09-28 12:26:00,77.4,26.2,29.21,East,82,10.5,11.0,15,0.00,,---,0.00,VWS V14.01,2013-09-28 17:26:00,
2013-09-28 12:31:00,77.4,26.2,29.21,SSE,164,12.8,12.8,15,0.00,,---,0.00,VWS V14.01,2013-09-28 17:31:00,
2013-09-28 12:36:00,77.1,25.9,29.21,South,172,11.4,11.4,15,0.00,,---,0.00,VWS V14.01,2013-09-28 17:36:00,
2013-09-28 12:41:00,78.3,25.2,29.18,South,185,8.7,8.7,14,0.00,,---,0.00,VWS V14.01,2013-09-28 17:41:00,
2013-09-28 12:46:00,78.1,25.1,29.18,South,172,15.0,15.0,14,0.00,,---,0.00,VWS V14.01,2013-09-28 17:46:00,
2013-09-28 12:51:00,78.9,25.7,29.18,SE,125,8.1,8.1,14,0.00,,---,0.00,VWS V14.01,2013-09-28 17:51:00,
2013-09-28 12:56:00,78.1,25.1,29.18,South,190,10.1,12.8,14,0.00,,---,0.00,VWS V14.01,2013-09-28 17:56:00,
2013-09-28 13:01:00,78.9,25.7,29.18,SSE,161,10.5,10.5,14,0.00,,---,0.00,VWS V14.01,2013-09-28 18:01:00,
2013-09-28 13:06:00,78.1,25.1,29.18,SSE,147,8.1,10.1,14,0.00,,---,0.00,VWS V14.01,2013-09-28 18:06:00,
2013-09-28 13:11:00,79.6,26.2,29.18,South,170,2.7,3.1,14,0.00,,---,0.00,VWS V14.01,2013-09-28 18:11:00,
2013-09-28 13:16:00,79.4,26.1,29.18,SSW,208,6.3,8.7,14,0.00,,---,0.00,VWS V14.01,2013-09-28 18:16:00,
2013-09-28 13:21:00,80.1,26.7,29.18,SE,143,8.3,10.1,14,0.00,,---,0.00,VWS V14.01,2013-09-28 18:21:00,
2013-09-28 13:26:00,80.5,27.0,29.18,South,185,4.0,16.8,14,0.00,,---,0.00,VWS V14.01,2013-09-28 18:26:00,
2013-09-28 13:31:00,79.0,25.8,29.18,SSE,168,9.2,9.2,14,0.00,,---,0.00,VWS V14.01,2013-09-28 18:31:00,
2013-09-28 13:36:00,78.5,25.4,29.18,South,170,13.2,13.2,14,0.00,,---,0.00,VWS V14.01,2013-09-28 18:36:00,
2013-09-28 13:41:00,78.1,25.1,29.18,South,186,5.8,5.8,14,0.00,,---,0.00,VWS V14.01,2013-09-28 18:41:00,
2013-09-28 13:46:00,78.3,25.2,29.18,SSE,162,9.6,9.6,14,0.00,,---,0.00,VWS V14.01,2013-09-28 18:46:00,
2013-09-28 13:51:00,78.7,25.5,29.18,ENE,74,10.1,11.0,14,0.00,,---,0.00,VWS V14.01,2013-09-28 18:51:00,
2013-09-28 13:56:00,78.9,25.7,29.18,South,179,8.1,8.3,14,0.00,,---,0.00,VWS V14.01,2013-09-28 18:56:00,
2013-09-28 14:01:00,77.8,24.8,29.18,SW,215,10.5,10.5,14,0.00,,---,0.00,VWS V14.01,2013-09-28 19:01:00,
2013-09-28 14:06:00,78.9,25.7,29.18,South,172,3.1,4.9,14,0.00,,---,0.00,VWS V14.01,2013-09-28 19:06:00,
2013-09-28 14:11:00,79.6,26.2,29.18,SW,220,10.1,10.1,14,0.00,,---,0.00,VWS V14.01,2013-09-28 19:11:00,
2013-09-28 14:16:00,78.5,25.4,29.18,South,188,2.7,5.8,14,0.00,,---,0.00,VWS V14.01,2013-09-28 19:16:00,
2013-09-28 14:21:00,80.1,26.7,29.18,SSE,155,12.3,12.3,14,0.00,,---,0.00,VWS V14.01,2013-09-28 19:21:00,
2013-09-28 14:26:00,81.9,26.3,29.15,SW,216,10.5,17.0,13,0.00,,---,0.00,VWS V14.01,2013-09-28 19:26:00,
2013-09-28 14:31:00,82.6,26.9,29.15,SSW,197,10.5,10.5,13,0.00,,---,0.00,VWS V14.01,2013-09-28 19:31:00,
2013-09-28 14:36:00,82.1,26.4,29.15,SE,144,6.3,10.1,13,0.00,,---,0.00,VWS V14.01,2013-09-28 19:36:00,
2013-09-28 14:41:00,82.6,26.9,29.15,SSW,193,3.6,5.8,13,0.00,,---,0.00,VWS V14.01,2013-09-28 19:41:00,
2013-09-28 14:46:00,84.1,28.0,29.15,SSW,207,6.3,7.6,13,0.00,,---,0.00,VWS V14.01,2013-09-28 19:46:00,
2013-09-28 14:51:00,82.6,26.9,29.15,South,175,8.1,10.5,13,0.00,,---,0.00,VWS V14.01,2013-09-28 19:51:00,
2013-09-28 14:56:00,83.0,27.1,29.15,South,177,3.1,3.1,13,0.00,,---,0.00,VWS V14.01,2013-09-28 19:56:00,
2013-09-28 15:01:00,80.8,27.2,29.15,SSE,150,8.1,8.1,14,0.00,,---,0.00,VWS V14.01,2013-09-28 20:01:00,
2013-09-28 15:06:00,79.2,26.0,29.15,SE,140,7.6,17.0,14,0.00,,---,0.00,VWS V14.01,2013-09-28 20:06:00,
2013-09-28 15:11:00,80.5,27.0,29.15,SSE,149,6.3,10.1,14,0.00,,---,0.00,VWS V14.01,2013-09-28 20:11:00,
2013-09-28 15:16:00,78.9,25.7,29.15,SE,141,8.7,8.7,14,0.00,,---,0.00,VWS V14.01,2013-09-28 20:16:00,
2013-09-28 15:21:00,78.3,25.2,29.15,South,187,9.6,9.6,14,0.00,,---,0.00,VWS V14.01,2013-09-28 20:21:00,
2013-09-28 15:26:00,78.1,25.1,29.15,SW,226,6.3,8.3,14,0.00,,---,0.00,VWS V14.01,2013-09-28 20:26:00,
2013-09-28 15:31:00,78.1,25.1,29.15,SE,139,6.3,6.3,14,0.00,,---,0.00,VWS V14.01,2013-09-28 20:31:00,
2013-09-28 15:36:00,78.7,25.5,29.15,SSW,193,4.0,10.1,14,0.00,,---,0.00,VWS V14.01,2013-09-28 20:36:00,
2013-09-28 15:41:00,78.0,25.0,29.15,WNW,286,8.3,8.3,14,0.00,,---,0.00,VWS V14.01,2013-09-28 20:41:00,
2013-09-28 15:46:00,77.4,26.2,29.15,SE,126,8.3,8.7,15,0.00,,---,0.00,VWS V14.01,2013-09-28 20:46:00,
2013-09-28 15:51:00,77.2,26.0,29.15,East,80,4.0,5.4,15,0.00,,---,0.00,VWS V14.01,2013-09-28 20:51:00,
2013-09-28 15:56:00,77.4,26.2,29.15,South,189,4.9,8.1,15,0.00,,---,0.00,VWS V14.01,2013-09-28 20:56:00,
2013-09-28 16:01:00,76.9,25.8,29.15,SSE,163,8.3,12.8,15,0.00,,---,0.00,VWS V14.01,2013-09-28 21:01:00,
2013-09-28 16:06:00,76.7,25.6,29.15,SSW,198,8.1,8.3,15,0.00,,---,0.00,VWS V14.01,2013-09-28 21:06:00,
2013-09-28 16:11:00,76.2,25.2,29.12,SSE,160,8.7,8.7,15,0.00,,---,0.00,VWS V14.01,2013-09-28 21:11:00,
2013-09-28 16:16:00,76.0,25.0,29.12,SW,234,3.1,3.6,15,0.00,,---,0.00,VWS V14.01,2013-09-28 21:16:00,
2013-09-28 16:21:00,75.6,24.8,29.12,South,181,4.0,5.4,15,0.00,,---,0.00,VWS V14.01,2013-09-28 21:21:00,
2013-09-28 16:26:00,75.3,24.5,29.12,SSE,156,6.3,15.0,15,0.00,,---,0.00,VWS V14.01,2013-09-28 21:26:00,
2013-09-28 16:31:00,75.3,24.5,29.12,South,171,4.0,8.1,15,0.00,,---,0.00,VWS V14.01,2013-09-28 21:31:00,
2013-09-28 16:36:00,75.3,24.5,29.12,SSW,200,3.6,10.5,15,0.00,,---,0.00,VWS V14.01,2013-09-28 21:36:00,
2013-09-28 16:41:00,75.6,24.8,29.12,South,172,4.9,5.4,15,0.00,,---,0.00,VWS V14.01,2013-09-28 21:41:00,
2013-09-28 16:46:00,75.3,24.5,29.12,South,189,8.7,10.5,15,0.00,,---,0.00,VWS V14.01,2013-09-28 21:46:00,
2013-09-28 16:51:00,74.9,24.2,29.12,SSW,198,2.7,6.3,15,0.00,,---,0.00,VWS V14.01,2013-09-28 21:51:00,
2013-09-28 16:56:00,74.5,23.9,29.12,SSW,203,5.8,5.8,15,0.00,,---,0.00,VWS V14.01,2013-09-28 21:56:00,
2013-09-28 17:01:00,74.4,23.8,29.12,WSW,248,5.8,5.8,15,0.00,,---,0.00,VWS V14.01,2013-09-28 22:01:00,
2013-09-28 17:06:00,74.4,23.8,29.12,ESE,116,0.0,2.7,15,0.00,,---,0.00,VWS V14.01,2013-09-28 22:06:00,
2013-09-28 17:11:00,74.2,23.6,29.12,South,186,3.6,8.7,15,0.00,,---,0.00,VWS V14.01,2013-09-28 22:11:00,
2013-09-28 17:16:00,74.2,23.6,29.12,South,176,10.1,10.1,15,0.00,,---,0.00,VWS V14.01,2013-09-28 22:16:00,
2013-09-28 17:21:00,73.8,23.3,29.12,SSW,203,3.1,3.1,15,0.00,,---,0.00,VWS V14.01,2013-09-28 22:21:00,
2013-09-28 17:26:00,73.5,23.0,29.12,SSE,148,4.0,5.8,15,0.00,,---,0.00,VWS V14.01,2013-09-28 22:26:00,
2013-09-28 17:31:00,73.1,22.7,29.12,SSW,193,2.7,3.6,15,0.00,,---,0.00,VWS V14.01,2013-09-28 22:31:00,
2013-09-28 17:36:00,72.7,22.5,29.12,SSW,204,3.1,3.1,15,0.00,,---,0.00,VWS V14.01,2013-09-28 22:36:00,
2013-09-28 17:41:00,72.6,22.3,29.15,South,186,2.7,5.4,15,0.00,,---,0.00,VWS V14.01,2013-09-28 22:41:00,
2013-09-28 17:46:00,72.4,22.2,29.15,WSW,239,2.2,3.1,15,0.00,,---,0.00,VWS V14.01,2013-09-28 22:46:00,
2013-09-28 17:51:00,72.2,22.0,29.15,WNW,302,4.0,4.0,15,0.00,,---,0.00,VWS V14.01,2013-09-28 22:51:00,
2013-09-28 17:56:00,72.0,23.4,29.15,West,262,0.0,0.0,16,0.00,,---,0.00,VWS V14.01,2013-09-28 22:56:00,
2013-09-28 18:01:00,71.8,23.3,29.15,SW,214,3.6,3.6,16,0.00,,---,0.00,VWS V14.01,2013-09-28 23:01:00,
2013-09-28 18:06:00,71.8,23.3,29.15,SW,226,0.0,5.4,16,0.00,,---,0.00,VWS V14.01,2013-09-28 23:06:00,
2013-09-28 18:11:00,71.7,23.1,29.15,WSW,257,8.1,8.1,16,0.00,,---,0.00,VWS V14.01,2013-09-28 23:11:00,
2013-09-28 18:16:00,70.9,22.5,29.15,West,262,4.0,5.8,16,0.00,,---,0.00,VWS V14.01,2013-09-28 23:16:00,
2013-09-28 18:21:00,70.2,22.0,29.15,SW,233,8.7,12.8,16,0.00,,---,0.00,VWS V14.01,2013-09-28 23:21:00,
2013-09-28 18:26:00,69.0,25.0,29.15,West,271,8.3,13.2,19,0.00,,---,0.00,VWS V14.01,2013-09-28 23:26:00,
2013-09-28 18:31:00,66.8,29.9,29.15,West,277,15.4,17.4,25,0.00,,---,0.00,VWS V14.01,2013-09-28 23:31:00,
2013-09-28 18:36:00,65.7,35.8,29.15,NW,307,6.3,17.4,33,0.00,,---,0.00,VWS V14.01,2013-09-28 23:36:00,
2013-09-28 18:41:00,65.2,36.9,29.15,WSW,247,5.8,17.4,35,0.00,,---,0.00,VWS V14.01,2013-09-28 23:41:00,
2013-09-28 18:46:00,65.0,37.4,29.15,SW,229,4.0,17.4,36,0.00,,---,0.00,VWS V14.01,2013-09-28 23:46:00,
2013-09-28 18:51:00,65.0,38.1,29.15,SW,236,4.0,17.4,37,0.00,,---,0.00,VWS V14.01,2013-09-28 23:51:00,
2013-09-28 18:56:00,64.8,38.0,29.15,SW,231,6.3,6.3,37,0.00,,---,0.00,VWS V14.01,2013-09-28 23:56:00,
2013-09-28 19:02:00,65.0,38.1,29.15,SW,214,5.8,7.6,37,0.00,,---,0.00,VWS V14.01,2013-09-29 00:02:00,
2013-09-28 19:07:00,64.8,38.0,29.15,South,178,3.6,8.3,37,0.00,,---,0.00,VWS V14.01,2013-09-29 00:07:00,
2013-09-28 19:12:00,64.8,36.5,29.15,SW,235,3.6,7.6,35,0.00,,---,0.00,VWS V14.01,2013-09-29 00:12:00,
2013-09-28 19:17:00,65.4,35.5,29.15,SSW,200,3.1,6.7,33,0.00,,---,0.00,VWS V14.01,2013-09-29 00:17:00,
2013-09-28 19:22:00,65.9,35.2,29.15,SSW,202,5.8,8.7,32,0.00,,---,0.00,VWS V14.01,2013-09-29 00:22:00,
2013-09-28 19:27:00,66.4,33.2,29.15,SSW,193,5.4,5.4,29,0.00,,---,0.00,VWS V14.01,2013-09-29 00:27:00,
2013-09-28 19:32:00,66.4,32.4,29.15,SSE,167,3.1,6.3,28,0.00,,---,0.00,VWS V14.01,2013-09-29 00:32:00,
2013-09-28 19:37:00,66.6,32.5,29.15,SSW,206,0.0,0.0,28,0.00,,---,0.00,VWS V14.01,2013-09-29 00:37:00,
2013-09-28 19:42:00,66.4,32.4,29.15,South,186,5.4,6.3,28,0.00,,---,0.00,VWS V14.01,2013-09-29 00:42:00,
2013-09-28 19:48:00,66.4,32.4,29.15,SSE,159,5.8,6.3,28,0.00,,---,0.00,VWS V14.01,2013-09-29 00:48:00,
2013-09-28 19:53:00,66.4,32.4,29.15,South,169,4.9,6.7,28,0.00,,---,0.00,VWS V14.01,2013-09-29 00:53:00,
2013-09-28 19:58:00,66.4,32.4,29.15,SE,128,0.0,4.0,28,0.00,,---,0.00,VWS V14.01,2013-09-29 00:58:00,
2013-09-28 20:03:00,66.4,32.4,29.15,South,185,2.7,4.0,28,0.00,,---,0.00,VWS V14.01,2013-09-29 01:03:00,
2013-09-28 20:08:00,66.4,33.2,29.15,WSW,239,3.1,4.0,29,0.00,,---,0.00,VWS V14.01,2013-09-29 01:08:00,
2013-09-28 20:13:00,65.9,35.2,29.15,WSW,247,2.2,4.0,32,0.00,,---,0.00,VWS V14.01,2013-09-29 01:13:00,
2013-09-28 20:18:00,65.2,36.1,29.15,SE,125,2.7,3.1,34,0.00,,---,0.00,VWS V14.01,2013-09-29 01:18:00,
2013-09-28 20:23:00,65.0,37.4,29.15,South,170,0.0,0.0,36,0.00,,---,0.00,VWS V14.01,2013-09-29 01:23:00,
2013-09-28 20:28:00,64.8,38.0,29.15,SSE,166,0.0,0.0,37,0.00,,---,0.00,VWS V14.01,2013-09-29 01:28:00,
2013-09-28 20:33:00,64.8,38.0,29.15,SSW,201,0.0,0.0,37,0.00,,---,0.00,VWS V14.01,2013-09-29 01:33:00,
2013-09-28 20:38:00,64.8,38.6,29.15,SSW,200,0.0,0.0,38,0.00,,---,0.00,VWS V14.01,2013-09-29 01:38:00,
2013-09-28 20:43:00,64.8,38.0,29.15,SE,128,3.6,6.3,37,0.00,,---,0.00,VWS V14.01,2013-09-29 01:43:00,
2013-09-28 20:48:00,64.8,37.3,29.15,SSE,150,5.4,8.1,36,0.00,,---,0.00,VWS V14.01,2013-09-29 01:48:00,
2013-09-28 20:53:00,65.2,36.9,29.15,South,172,4.0,5.4,35,0.00,,---,0.00,VWS V14.01,2013-09-29 01:53:00,
2013-09-28 20:58:00,65.2,37.6,29.15,SSE,158,2.7,3.6,36,0.00,,---,0.00,VWS V14.01,2013-09-29 01:58:00,
2013-09-28 21:03:00,65.2,37.6,29.15,SE,146,3.6,4.9,36,0.00,,---,0.00,VWS V14.01,2013-09-29 02:03:00,
2013-09-28 21:08:00,65.4,37.0,29.15,SSW,197,5.4,5.8,35,0.00,,---,0.00,VWS V14.01,2013-09-29 02:08:00,
2013-09-28 21:13:00,65.5,37.2,29.15,South,185,5.8,5.8,35,0.00,,---,0.00,VWS V14.01,2013-09-29 02:13:00,
2013-09-28 21:18:00,65.5,37.9,29.15,SSE,162,4.9,4.9,36,0.00,,---,0.00,VWS V14.01,2013-09-29 02:18:00,
2013-09-28 21:23:00,65.4,37.7,29.15,SE,146,5.4,5.8,36,0.00,,---,0.00,VWS V14.01,2013-09-29 02:23:00,
2013-09-28 21:28:00,65.4,37.7,29.15,SSW,192,4.9,5.8,36,0.00,,---,0.00,VWS V14.01,2013-09-29 02:28:00,
2013-09-28 21:33:00,65.4,38.4,29.15,South,179,5.8,5.8,37,0.00,,---,0.00,VWS V14.01,2013-09-29 02:33:00,
2013-09-28 21:38:00,64.8,38.0,29.15,NW,323,8.3,10.1,37,0.00,,---,0.00,VWS V14.01,2013-09-29 02:38:00,
2013-09-28 21:43:00,63.2,35.8,29.18,West,266,10.1,12.8,36,0.00,,---,0.00,VWS V14.01,2013-09-29 02:43:00,
2013-09-28 21:48:00,61.9,34.0,29.18,NW,311,12.3,12.3,35,0.00,,---,0.00,VWS V14.01,2013-09-29 02:48:00,
2013-09-28 21:53:00,61.2,36.1,29.18,WNW,284,4.0,6.3,39,0.00,,---,0.00,VWS V14.01,2013-09-29 02:53:00,
2013-09-28 21:58:00,60.3,34.6,29.18,NW,313,10.1,15.4,38,0.00,,---,0.00,VWS V14.01,2013-09-29 02:58:00,
2013-09-28 22:03:00,59.8,35.4,29.18,NW,308,5.8,10.5,40,0.00,,---,0.00,VWS V14.01,2013-09-29 03:03:00,
2013-09-28 22:08:00,59.4,35.7,29.18,NW,314,8.1,13.2,41,0.00,,---,0.00,VWS V14.01,2013-09-29 03:08:00,
2013-09-28 22:13:00,59.1,34.8,29.21,North,9,5.8,10.5,40,0.00,,---,0.00,VWS V14.01,2013-09-29 03:13:00,
2013-09-28 22:18:00,58.7,35.7,29.21,WNW,293,8.1,12.8,42,0.00,,---,0.00,VWS V14.01,2013-09-29 03:18:00,
2013-09-28 22:23:00,58.3,34.8,29.21,North,353,3.1,8.7,41,0.00,,---,0.00,VWS V14.01,2013-09-29 03:23:00,
2013-09-28 22:28:00,58.2,36.4,29.21,WNW,303,5.8,6.7,44,0.00,,---,0.00,VWS V14.01,2013-09-29 03:28:00,
2013-09-28 22:33:00,58.0,39.0,29.21,NW,313,4.0,5.8,49,0.00,,---,0.00,VWS V14.01,2013-09-29 03:33:00,
2013-09-28 22:38:00,57.8,42.7,29.21,WNW,284,5.4,5.4,57,0.00,,---,0.00,VWS V14.01,2013-09-29 03:38:00,
2013-09-28 22:43:00,57.8,44.5,29.21,WNW,298,10.5,10.5,61,0.00,,---,0.00,VWS V14.01,2013-09-29 03:43:00,
2013-09-28 22:48:00,57.6,44.7,29.21,WNW,300,4.9,5.8,62,0.00,,---,0.00,VWS V14.01,2013-09-29 03:48:00,
2013-09-28 22:53:00,57.4,45.8,29.21,NW,317,7.6,7.6,65,0.00,,---,0.00,VWS V14.01,2013-09-29 03:53:00,
2013-09-28 22:58:00,57.1,44.6,29.21,NW,305,11.0,11.0,63,0.00,,---,0.00,VWS V14.01,2013-09-29 03:58:00,
2013-09-28 23:01:00,57.1,44.6,29.21,NW,316,8.3,8.7,63,0.00,,---,0.00,VWS V14.01,2013-09-29 04:01:00,
2013-09-28 23:06:00,56.9,42.7,29.21,West,273,8.7,10.5,59,0.00,,---,0.00,VWS V14.01,2013-09-29 04:06:00,
2013-09-28 23:11:00,56.2,35.1,29.21,WNW,282,8.3,8.3,45,0.00,,---,0.00,VWS V14.01,2013-09-29 04:11:00,
2013-09-28 23:16:00,56.0,34.4,29.21,WNW,293,5.4,5.8,44,0.00,,---,0.00,VWS V14.01,2013-09-29 04:16:00,
2013-09-28 23:21:00,55.8,34.8,29.21,NW,308,6.3,6.3,45,0.00,,---,0.00,VWS V14.01,2013-09-29 04:21:00,
2013-09-28 23:26:00,55.8,39.0,29.21,NW,321,7.6,7.6,53,0.00,,---,0.00,VWS V14.01,2013-09-29 04:26:00,
2013-09-28 23:31:00,55.8,41.3,29.21,NW,318,8.1,8.1,58,0.00,,---,0.00,VWS V14.01,2013-09-29 04:31:00,
2013-09-28 23:36:00,55.8,43.0,29.21,NW,317,8.3,8.3,62,0.00,,---,0.00,VWS V14.01,2013-09-29 04:36:00,
2013-09-28 23:41:00,55.8,44.6,29.21,North,349,5.8,5.8,66,0.00,,---,0.00,VWS V14.01,2013-09-29 04:41:00,
2013-09-28 23:46:00,55.6,44.9,29.21,WNW,292,3.1,3.1,67,0.00,,---,0.00,VWS V14.01,2013-09-29 04:46:00,
2013-09-28 23:51:00,55.1,39.7,29.21,NNW,338,3.1,5.8,56,0.00,,---,0.00,VWS V14.01,2013-09-29 04:51:00,
2013-09-28 23:56:00,54.6,29.5,29.23,WNW,302,3.6,3.6,38,0.00,,---,0.00,VWS V14.01,2013-09-29 04:56:00,